| time (UTC) | temp F | wind direction | speed MPH | gust MPH | rain 1hr in | rain 24hr in | rain mn in | humidity % | barometer mb |
| 20260503015327 | 50 | 360 | 4.0 | 7.0 | 0.00 | 0.00 | 0.00 | 50 | 1012.4 |
| 20260503014837 | 50 | 360 | 4.0 | 7.0 | 0.00 | 0.00 | 0.00 | 50 | 1012.5 |
| 20260503014328 | 50 | 360 | 4.0 | 7.0 | 0.00 | 0.00 | 0.00 | 49 | 1012.4 |
| 20260503013835 | 50 | 360 | 5.0 | 6.0 | 0.00 | 0.00 | 0.00 | 49 | 1012.3 |
| 20260503013324 | 50 | 360 | 5.0 | 6.0 | 0.00 | 0.00 | 0.00 | 50 | 1012.3 |
| 20260503012833 | 50 | 360 | 4.0 | 6.0 | 0.00 | 0.00 | 0.00 | 50 | 1012.3 |
| 20260503012322 | 50 | 360 | 3.0 | 5.0 | 0.00 | 0.00 | 0.00 | 50 | 1012.3 |
| 20260503011830 | 50 | 360 | 3.0 | 5.0 | 0.00 | 0.00 | 0.00 | 50 | 1012.2 |
| 20260503011339 | 50 | 360 | 3.0 | 5.0 | 0.00 | 0.00 | 0.00 | 49 | 1012.2 |
| 20260503010823 | 51 | 190 | 3.0 | 5.0 | 0.00 | 0.00 | 0.00 | 50 | 1012.3 |
| 20260503010332 | 51 | 360 | 3.0 | 5.0 | 0.00 | 0.00 | 0.00 | 49 | 1012.3 |
| 20260503005822 | 51 | 360 | 3.0 | 5.0 | 0.00 | 0.00 | 0.00 | 49 | 1012.4 |
| 20260503005331 | 51 | 360 | 4.0 | 5.0 | 0.00 | 0.00 | 0.00 | 48 | 1012.4 |
| 20260503004835 | 52 | 360 | 4.0 | 7.0 | 0.00 | 0.00 | 0.00 | 48 | 1012.5 |
| 20260503004345 | 52 | 360 | 4.0 | 7.0 | 0.00 | 0.00 | 0.00 | 47 | 1012.5 |
| 20260503003851 | 52 | 360 | 5.0 | 6.0 | 0.00 | 0.00 | 0.00 | 46 | 1012.5 |
| 20260503003339 | 53 | 360 | 5.0 | 8.0 | 0.00 | 0.00 | 0.00 | 45 | 1012.4 |
| 20260503002848 | 53 | 360 | 6.0 | 9.0 | 0.00 | 0.00 | 0.00 | 45 | 1012.4 |
| 20260503002356 | 53 | 360 | 6.0 | 9.0 | 0.00 | 0.00 | 0.00 | 43 | 1012.5 |
| 20260503001825 | 54 | 360 | 6.0 | 9.0 | 0.00 | 0.00 | 0.00 | 43 | 1012.5 |
| 20260503001334 | 54 | 360 | 5.0 | 9.0 | 0.00 | 0.00 | 0.00 | 43 | 1012.4 |
| 20260503000841 | 54 | 360 | 7.0 | 9.0 | 0.00 | 0.00 | 0.00 | 43 | 1012.4 |
| 20260503000350 | 54 | 360 | 5.0 | 8.0 | 0.00 | 0.00 | 0.00 | 42 | 1012.4 |
| 20260502235905 | 55 | 360 | 3.0 | 8.0 | 0.00 | 0.00 | 0.00 | 41 | 1012.5 |
| 20260502235354 | 55 | 360 | 5.0 | 11.0 | 0.00 | 0.00 | 0.00 | 41 | 1012.5 |
| 20260502234840 | 55 | 360 | 5.0 | 12.0 | 0.00 | 0.00 | 0.00 | 40 | 1012.6 |
| 20260502234345 | 55 | 360 | 5.0 | 12.0 | 0.00 | 0.00 | 0.00 | 40 | 1012.6 |
| 20260502233838 | 55 | 360 | 6.0 | 12.0 | 0.00 | 0.00 | 0.00 | 39 | 1012.7 |
| 20260502233327 | 55 | 360 | 4.0 | 12.0 | 0.00 | 0.00 | 0.00 | 42 | 1012.6 |
| 20260502232834 | 55 | 360 | 5.0 | 11.0 | 0.00 | 0.00 | 0.00 | 41 | 1012.7 |
| 20260502232325 | 55 | 360 | 6.0 | 11.0 | 0.00 | 0.00 | 0.00 | 40 | 1012.8 |
| 20260502231832 | 55 | 360 | 6.0 | 10.0 | 0.00 | 0.00 | 0.00 | 42 | 1012.8 |
| 20260502231342 | 55 | 360 | 5.0 | 10.0 | 0.00 | 0.00 | 0.00 | 41 | 1012.9 |
| 20260502230829 | 55 | 360 | 6.0 | 9.0 | 0.00 | 0.00 | 0.00 | 41 | 1012.9 |
| 20260502230337 | 55 | 360 | 5.0 | 9.0 | 0.00 | 0.00 | 0.00 | 40 | 1013.0 |
| 20260502225825 | 55 | 360 | 5.0 | 10.0 | 0.00 | 0.00 | 0.00 | 41 | 1013.0 |
| 20260502225335 | 55 | 360 | 5.0 | 13.0 | 0.00 | 0.01 | 0.00 | 39 | 1013.0 |
| 20260502224823 | 55 | 360 | 7.0 | 18.0 | 0.00 | 0.01 | 0.00 | 40 | 1013.0 |
| 20260502224341 | 55 | 360 | 7.0 | 18.0 | 0.00 | 0.01 | 0.00 | 39 | 1013.0 |
| 20260502223828 | 56 | 360 | 13.0 | 16.0 | 0.00 | 0.01 | 0.00 | 40 | 1012.9 |
| 20260502223337 | 55 | 360 | 4.0 | 11.0 | 0.00 | 0.01 | 0.00 | 40 | 1012.9 |
| 20260502222848 | 56 | 360 | 7.0 | 11.0 | 0.00 | 0.01 | 0.00 | 40 | 1013.0 |
| 20260502222358 | 55 | 360 | 2.0 | 12.0 | 0.00 | 0.01 | 0.00 | 41 | 1013.1 |
| 20260502221825 | 55 | 360 | 7.0 | 12.0 | 0.00 | 0.01 | 0.00 | 41 | 1013.1 |
| 20260502221331 | 55 | 360 | 7.0 | 13.0 | 0.00 | 0.01 | 0.00 | 41 | 1013.1 |
| 20260502220839 | 55 | 360 | 6.0 | 13.0 | 0.00 | 0.01 | 0.00 | 40 | 1013.2 |
| 20260502215823 | 56 | 360 | 8.0 | 13.0 | 0.00 | 0.01 | 0.00 | 39 | 1013.1 |
| 20260502215332 | 55 | 360 | 9.0 | 12.0 | 0.00 | 0.01 | 0.00 | 38 | 1013.2 |
| 20260502214841 | 55 | 360 | 8.0 | 11.0 | 0.00 | 0.01 | 0.00 | 40 | 1013.2 |
| 20260502214354 | 55 | 360 | 4.0 | 15.0 | 0.00 | 0.01 | 0.00 | 39 | 1013.3 |
| 20260502213840 | 55 | 360 | 8.0 | 15.0 | 0.00 | 0.01 | 0.00 | 40 | 1013.3 |
| 20260502213332 | 55 | 360 | 3.0 | 12.0 | 0.00 | 0.01 | 0.00 | 41 | 1013.4 |
| 20260502212822 | 55 | 233 | 2.0 | 10.0 | 0.00 | 0.01 | 0.00 | 40 | 1013.4 |
| 20260502212330 | 54 | 360 | 5.0 | 9.0 | 0.00 | 0.01 | 0.00 | 41 | 1013.3 |
| 20260502211837 | 54 | 360 | 4.0 | 11.0 | 0.00 | 0.01 | 0.00 | 40 | 1013.4 |
| 20260502211327 | 54 | 360 | 8.0 | 16.0 | 0.00 | 0.01 | 0.00 | 40 | 1013.5 |
| 20260502210836 | 54 | 360 | 10.0 | 16.0 | 0.00 | 0.01 | 0.00 | 41 | 1013.4 |
| 20260502210324 | 54 | 360 | 6.0 | 13.0 | 0.00 | 0.01 | 0.00 | 40 | 1013.4 |
| 20260502205835 | 54 | 360 | 5.0 | 12.0 | 0.00 | 0.01 | 0.00 | 40 | 1013.6 |
| 20260502205344 | 54 | 360 | 2.0 | 9.0 | 0.00 | 0.01 | 0.00 | 43 | 1013.6 |
| 20260502204832 | 54 | 360 | 2.0 | 9.0 | 0.00 | 0.01 | 0.00 | 42 | 1013.6 |
| 20260502204342 | 53 | 360 | 3.0 | 9.0 | 0.00 | 0.01 | 0.00 | 42 | 1013.6 |
| 20260502203830 | 54 | 360 | 6.0 | 9.0 | 0.00 | 0.01 | 0.00 | 41 | 1013.7 |
| 20260502203322 | 54 | 360 | 4.0 | 9.0 | 0.00 | 0.01 | 0.00 | 41 | 1013.8 |
| 20260502202826 | 54 | 20 | 5.0 | 14.0 | 0.00 | 0.01 | 0.00 | 40 | 1013.8 |
| 20260502202336 | 54 | 360 | 3.0 | 14.0 | 0.00 | 0.01 | 0.00 | 40 | 1014.0 |
| 20260502201826 | 54 | 360 | 5.0 | 13.0 | 0.00 | 0.01 | 0.00 | 39 | 1014.0 |
| 20260502201328 | 54 | 360 | 3.0 | 11.0 | 0.00 | 0.01 | 0.00 | 41 | 1014.0 |
| 20260502200836 | 54 | 360 | 5.0 | 13.0 | 0.00 | 0.01 | 0.00 | 40 | 1014.1 |
| 20260502200344 | 55 | 360 | 8.0 | 21.0 | 0.00 | 0.01 | 0.00 | 40 | 1014.1 |
| 20260502195859 | 54 | 360 | 8.0 | 21.0 | 0.00 | 0.01 | 0.00 | 42 | 1014.2 |
| 20260502195327 | 54 | 360 | 7.0 | 15.0 | 0.00 | 0.01 | 0.00 | 42 | 1014.3 |
| 20260502194835 | 54 | 360 | 11.0 | 15.0 | 0.00 | 0.01 | 0.00 | 41 | 1014.4 |
| 20260502194325 | 54 | 360 | 11.0 | 14.0 | 0.00 | 0.01 | 0.00 | 40 | 1014.4 |
| 20260502193832 | 53 | 360 | 4.0 | 13.0 | 0.00 | 0.01 | 0.00 | 40 | 1014.4 |
| 20260502193341 | 53 | 360 | 5.0 | 11.0 | 0.00 | 0.01 | 0.00 | 39 | 1014.6 |
| 20260502192830 | 54 | 230 | 4.0 | 10.0 | 0.00 | 0.01 | 0.00 | 39 | 1014.6 |
| 20260502192338 | 54 | 360 | 5.0 | 12.0 | 0.00 | 0.01 | 0.00 | 40 | 1014.7 |
| 20260502191826 | 53 | 259 | 3.0 | 12.0 | 0.00 | 0.01 | 0.00 | 42 | 1014.9 |
| 20260502191336 | 53 | 360 | 6.0 | 12.0 | 0.00 | 0.01 | 0.00 | 41 | 1014.9 |
| 20260502190825 | 53 | 360 | 6.0 | 12.0 | 0.00 | 0.01 | 0.00 | 40 | 1015.0 |
| 20260502190335 | 52 | 10 | 5.0 | 10.0 | 0.00 | 0.01 | 0.00 | 42 | 1014.9 |
| 20260502185825 | 53 | 260 | 4.0 | 10.0 | 0.00 | 0.01 | 0.00 | 41 | 1015.0 |
| 20260502185332 | 53 | 259 | 5.0 | 9.0 | 0.00 | 0.01 | 0.00 | 41 | 1015.3 |
| 20260502184843 | 53 | 360 | 5.0 | 8.0 | 0.00 | 0.01 | 0.00 | 40 | 1015.2 |
| 20260502184333 | 53 | 360 | 3.0 | 11.0 | 0.00 | 0.01 | 0.00 | 40 | 1015.3 |
| 20260502183841 | 53 | 360 | 6.0 | 11.0 | 0.00 | 0.01 | 0.00 | 43 | 1015.3 |
| 20260502183329 | 52 | 5 | 4.0 | 10.0 | 0.00 | 0.01 | 0.00 | 42 | 1015.3 |
| 20260502182835 | 52 | 360 | 6.0 | 10.0 | 0.00 | 0.01 | 0.00 | 41 | 1015.4 |
| 20260502182325 | 52 | 360 | 6.0 | 11.0 | 0.00 | 0.01 | 0.00 | 43 | 1015.4 |
| 20260502181835 | 52 | 360 | 6.0 | 12.0 | 0.00 | 0.01 | 0.00 | 43 | 1015.4 |
| 20260502181346 | 52 | 360 | 7.0 | 13.0 | 0.00 | 0.01 | 0.00 | 43 | 1015.4 |
| 20260502180830 | 52 | 360 | 5.0 | 13.0 | 0.00 | 0.01 | 0.00 | 43 | 1015.4 |
| 20260502180339 | 51 | 360 | 4.0 | 9.0 | 0.00 | 0.01 | 0.00 | 44 | 1015.5 |
| 20260502170347 | 50 | 360 | 6.0 | 10.0 | 0.00 | 0.01 | 0.00 | 46 | 1016.1 |
| 20260502164324 | 50 | 360 | 4.0 | 11.0 | 0.00 | 0.01 | 0.00 | 46 | 1016.3 |
| 20260502163832 | 50 | 360 | 5.0 | 10.0 | 0.00 | 0.01 | 0.00 | 46 | 1016.4 |
| 20260502163337 | 50 | 360 | 4.0 | 8.0 | 0.00 | 0.01 | 0.00 | 48 | 1016.3 |
| 20260502162828 | 49 | 360 | 5.0 | 12.0 | 0.00 | 0.01 | 0.00 | 47 | 1016.4 |
| 20260502162337 | 49 | 9 | 7.0 | 12.0 | 0.00 | 0.01 | 0.00 | 46 | 1016.5 |
| 20260502161825 | 48 | 360 | 3.0 | 10.0 | 0.00 | 0.01 | 0.00 | 49 | 1016.4 |
| 20260502161335 | 49 | 360 | 5.0 | 11.0 | 0.00 | 0.01 | 0.00 | 49 | 1016.6 |
| 20260502160823 | 49 | 360 | 7.0 | 12.0 | 0.00 | 0.01 | 0.00 | 50 | 1016.5 |
| 20260502160334 | 49 | 200 | 6.0 | 12.0 | 0.00 | 0.01 | 0.00 | 51 | 1016.7 |
| 20260502152335 | 48 | 360 | 7.0 | 11.0 | 0.00 | 0.01 | 0.00 | 47 | 1016.8 |
| 20260502151823 | 47 | 360 | 5.0 | 11.0 | 0.00 | 0.01 | 0.00 | 50 | 1016.8 |
| 20260502151335 | 47 | 360 | 2.0 | 11.0 | 0.00 | 0.01 | 0.00 | 49 | 1016.8 |
| 20260502150823 | 47 | 360 | 7.0 | 11.0 | 0.00 | 0.01 | 0.00 | 50 | 1016.8 |
| 20260502150333 | 47 | 360 | 1.0 | 9.0 | 0.00 | 0.01 | 0.00 | 48 | 1016.9 |
| 20260502130339 | 39 | 226 | 4.0 | 6.0 | 0.00 | 0.01 | 0.00 | 86 | 1017.0 |
| 20260502123329 | 36 | 360 | 3.0 | 5.0 | 0.00 | 0.01 | 0.00 | 90 | 1017.0 |
| 20260502122837 | 36 | 360 | 2.0 | 4.0 | 0.00 | 0.01 | 0.00 | 90 | 1017.0 |
| 20260502122326 | 36 | 360 | 1.0 | 4.0 | 0.00 | 0.01 | 0.00 | 90 | 1017.0 |
| 20260502121835 | 35 | 360 | 2.0 | 4.0 | 0.00 | 0.01 | 0.00 | 90 | 1017.0 |
| 20260502121325 | 35 | 360 | 2.0 | 3.0 | 0.00 | 0.01 | 0.00 | 90 | 1017.0 |
| 20260502120833 | 35 | 360 | 1.0 | 4.0 | 0.00 | 0.01 | 0.00 | 90 | 1017.0 |
| 20260502120321 | 35 | 360 | 1.0 | 4.0 | 0.00 | 0.01 | 0.00 | 90 | 1016.9 |
| 20260502115826 | 34 | 360 | 2.0 | 4.0 | 0.00 | 0.01 | 0.00 | 90 | 1016.8 |
| 20260502115343 | 34 | 360 | 1.0 | 3.0 | 0.00 | 0.01 | 0.00 | 90 | 1016.8 |
| 20260502114852 | 34 | 360 | 1.0 | 3.0 | 0.00 | 0.01 | 0.00 | 90 | 1016.9 |
| 20260502114341 | 34 | 360 | 1.0 | 3.0 | 0.00 | 0.01 | 0.00 | 90 | 1016.8 |
| 20260502113830 | 33 | 360 | 2.0 | 4.0 | 0.00 | 0.01 | 0.00 | 91 | 1016.8 |
| 20260502113336 | 33 | 360 | 2.0 | 4.0 | 0.00 | 0.01 | 0.00 | 91 | 1016.7 |
| 20260502112823 | 33 | 360 | 2.0 | 3.0 | 0.00 | 0.01 | 0.00 | 91 | 1016.7 |
| 20260502112359 | 33 | 360 | 1.0 | 3.0 | 0.00 | 0.01 | 0.00 | 91 | 1016.6 |
| 20260502111846 | 33 | 360 | 1.0 | 3.0 | 0.00 | 0.01 | 0.00 | 91 | 1016.5 |
| 20260502111357 | 33 | 360 | 1.0 | 3.0 | 0.00 | 0.01 | 0.00 | 91 | 1016.4 |
| 20260502110840 | 33 | 360 | 1.0 | 3.0 | 0.00 | 0.01 | 0.00 | 91 | 1016.4 |
| 20260502110349 | 33 | 360 | 2.0 | 3.0 | 0.00 | 0.01 | 0.00 | 91 | 1016.5 |
| 20260502105838 | 33 | 360 | 1.0 | 3.0 | 0.00 | 0.01 | 0.00 | 91 | 1016.5 |
| 20260502105329 | 33 | 360 | 1.0 | 3.0 | 0.00 | 0.01 | 0.00 | 91 | 1016.5 |
| 20260502104836 | 33 | 360 | 2.0 | 3.0 | 0.00 | 0.01 | 0.00 | 91 | 1016.6 |
| 20260502104325 | 33 | 360 | 1.0 | 4.0 | 0.00 | 0.01 | 0.00 | 91 | 1016.6 |
| 20260502103833 | 33 | 360 | 2.0 | 4.0 | 0.00 | 0.01 | 0.01 | 91 | 1016.5 |
| 20260502103323 | 33 | 360 | 2.0 | 3.0 | 0.00 | 0.01 | 0.01 | 91 | 1016.5 |
| 20260502102833 | 33 | 360 | 2.0 | 3.0 | 0.00 | 0.01 | 0.01 | 91 | 1016.3 |
| 20260502102324 | 33 | 360 | 2.0 | 3.0 | 0.00 | 0.01 | 0.01 | 91 | 1016.4 |
| 20260502101834 | 33 | 223 | 2.0 | 3.0 | 0.00 | 0.01 | 0.01 | 91 | 1016.4 |
| 20260502101325 | 33 | 223 | 2.0 | 3.0 | 0.00 | 0.01 | 0.01 | 91 | 1016.4 |
| 20260502100830 | 33 | 360 | 2.0 | 3.0 | 0.00 | 0.01 | 0.01 | 91 | 1016.4 |
| 20260502100341 | 33 | 360 | 2.0 | 3.0 | 0.00 | 0.01 | 0.01 | 91 | 1016.5 |
| 20260502091334 | 33 | 360 | 2.0 | 3.0 | 0.00 | 0.01 | 0.01 | 90 | 1016.5 |
| 20260502090840 | 33 | 360 | 2.0 | 2.0 | 0.00 | 0.01 | 0.01 | 90 | 1016.4 |
| 20260502090330 | 33 | 360 | 1.0 | 2.0 | 0.00 | 0.01 | 0.01 | 90 | 1016.3 |
| 20260502071344 | 35 | 360 | 2.0 | 4.0 | 0.00 | 0.03 | 0.01 | 84 | 1016.4 |
| 20260502070831 | 35 | 360 | 2.0 | 4.0 | 0.00 | 0.03 | 0.01 | 83 | 1016.3 |
| 20260502070334 | 35 | 360 | 3.0 | 4.0 | 0.00 | 0.03 | 0.01 | 83 | 1016.3 |
| 20260502065844 | 35 | 184 | 2.0 | 5.0 | 0.00 | 0.03 | 0.01 | 82 | 1016.3 |
| 20260502065334 | 35 | 360 | 2.0 | 5.0 | 0.00 | 0.03 | 0.01 | 81 | 1016.4 |
| 20260502064844 | 35 | 360 | 2.0 | 5.0 | 0.00 | 0.03 | 0.01 | 82 | 1016.4 |
| 20260502064356 | 35 | 360 | 3.0 | 5.0 | 0.00 | 0.03 | 0.01 | 82 | 1016.4 |
| 20260502063843 | 34 | 360 | 2.0 | 4.0 | 0.00 | 0.03 | 0.01 | 83 | 1016.5 |
| 20260502063333 | 34 | 360 | 2.0 | 3.0 | 0.00 | 0.03 | 0.01 | 83 | 1016.5 |
| 20260502062822 | 34 | 360 | 2.0 | 3.0 | 0.00 | 0.03 | 0.01 | 84 | 1016.6 |
| 20260502062332 | 34 | 360 | 2.0 | 3.0 | 0.00 | 0.03 | 0.01 | 84 | 1016.6 |
| 20260502061908 | 34 | 360 | 1.0 | 2.0 | 0.00 | 0.03 | 0.01 | 84 | 1016.6 |
| 20260502061358 | 34 | 360 | 0.0 | 2.0 | 0.00 | 0.03 | 0.01 | 84 | 1016.6 |
| 20260502060845 | 34 | 360 | 1.0 | 3.0 | 0.00 | 0.03 | 0.01 | 84 | 1016.6 |
| 20260502060356 | 34 | 360 | 1.0 | 3.0 | 0.00 | 0.03 | 0.01 | 84 | 1016.6 |
| 20260502055824 | 34 | 360 | 2.0 | 4.0 | 0.00 | 0.03 | 0.01 | 84 | 1016.6 |
| 20260502055333 | 35 | 360 | 3.0 | 4.0 | 0.00 | 0.03 | 0.01 | 83 | 1016.6 |
| 20260502054822 | 35 | 360 | 3.0 | 4.0 | 0.00 | 0.03 | 0.01 | 82 | 1016.6 |
| 20260502054334 | 35 | 360 | 2.0 | 2.0 | 0.00 | 0.03 | 0.01 | 81 | 1016.7 |
| 20260502053823 | 35 | 360 | 1.0 | 3.0 | 0.00 | 0.03 | 0.01 | 81 | 1016.8 |
| 20260502053333 | 35 | 360 | 1.0 | 4.0 | 0.00 | 0.03 | 0.01 | 81 | 1016.8 |
| 20260502052844 | 35 | 360 | 3.0 | 4.0 | 0.00 | 0.03 | 0.01 | 81 | 1016.7 |
| 20260502052357 | 36 | 360 | 0.0 | 0.0 | 0.00 | 0.03 | 0.01 | 80 | 1016.6 |
| 20260502051825 | 36 | 360 | 0.0 | 0.0 | 0.00 | 0.03 | 0.01 | 80 | 1016.7 |
| 20260502051334 | 36 | 360 | 0.0 | 0.0 | 0.00 | 0.03 | 0.01 | 80 | 1016.6 |
| 20260502050839 | 36 | 360 | 0.0 | 0.0 | 0.00 | 0.03 | 0.01 | 79 | 1016.6 |
| 20260502050347 | 35 | 360 | 0.0 | 0.0 | 0.00 | 0.03 | 0.01 | 78 | 1016.7 |
| 20260502045830 | 35 | 360 | 0.0 | 0.0 | 0.00 | 0.03 | 0.01 | 78 | 1016.6 |
| 20260502045338 | 35 | 360 | 0.0 | 0.0 | 0.00 | 0.05 | 0.01 | 78 | 1016.5 |
| 20260502044828 | 36 | 360 | 0.0 | 0.0 | 0.00 | 0.05 | 0.01 | 78 | 1016.5 |
| 20260502044337 | 36 | 360 | 0.0 | 0.0 | 0.00 | 0.05 | 0.01 | 78 | 1016.4 |
| 20260502043826 | 36 | 360 | 0.0 | 0.0 | 0.00 | 0.05 | 0.01 | 77 | 1016.5 |
| 20260502043335 | 36 | 360 | 0.0 | 0.0 | 0.00 | 0.05 | 0.01 | 78 | 1016.3 |
| 20260502042823 | 36 | 360 | 0.0 | 0.0 | 0.00 | 0.05 | 0.01 | 78 | 1016.3 |
| 20260502042333 | 36 | 360 | 0.0 | 0.0 | 0.00 | 0.05 | 0.01 | 78 | 1016.3 |
| 20260502041823 | 36 | 360 | 0.0 | 0.0 | 0.00 | 0.05 | 0.01 | 78 | 1016.4 |
| 20260502041335 | 36 | 360 | 0.0 | 0.0 | 0.00 | 0.05 | 0.01 | 78 | 1016.4 |
| 20260502040822 | 36 | 360 | 0.0 | 0.0 | 0.00 | 0.05 | 0.01 | 78 | 1016.4 |
| 20260502040332 | 36 | 360 | 0.0 | 0.0 | 0.00 | 0.05 | 0.01 | 77 | 1016.4 |
| 20260502035840 | 36 | 360 | 0.0 | 0.0 | 0.00 | 0.05 | 0.01 | 76 | 1016.4 |
| 20260502035328 | 36 | 360 | 0.0 | 1.0 | 0.00 | 0.05 | 0.01 | 75 | 1016.4 |
| 20260502034835 | 36 | 360 | 0.0 | 1.0 | 0.00 | 0.05 | 0.01 | 75 | 1016.3 |
| 20260502034326 | 36 | 360 | 0.0 | 1.0 | 0.00 | 0.05 | 0.01 | 75 | 1016.3 |
| 20260502033834 | 36 | 360 | 0.0 | 1.0 | 0.00 | 0.05 | 0.01 | 75 | 1016.4 |
| 20260502033344 | 36 | 360 | 0.0 | 1.0 | 0.00 | 0.05 | 0.01 | 75 | 1016.3 |
| 20260502032832 | 36 | 360 | 0.0 | 0.0 | 0.00 | 0.05 | 0.01 | 75 | 1016.3 |
| 20260502032323 | 36 | 360 | 0.0 | 0.0 | 0.00 | 0.05 | 0.01 | 74 | 1016.3 |
| 20260502031832 | 36 | 360 | 0.0 | 0.0 | 0.00 | 0.05 | 0.01 | 74 | 1016.3 |
| 20260502031341 | 36 | 360 | 0.0 | 0.0 | 0.00 | 0.05 | 0.01 | 74 | 1016.4 |
| 20260502030827 | 36 | 360 | 0.0 | 0.0 | 0.00 | 0.05 | 0.01 | 74 | 1016.4 |
| 20260502030333 | 36 | 360 | 0.0 | 0.0 | 0.00 | 0.05 | 0.01 | 73 | 1016.4 |
| 20260502025824 | 36 | 360 | 0.0 | 0.0 | 0.00 | 0.05 | 0.01 | 73 | 1016.4 |
| 20260502025332 | 36 | 360 | 0.0 | 0.0 | 0.00 | 0.06 | 0.01 | 73 | 1016.3 |
| 20260502024823 | 36 | 360 | 0.0 | 0.0 | 0.00 | 0.06 | 0.01 | 73 | 1016.2 |
| 20260502024332 | 36 | 360 | 0.0 | 0.0 | 0.00 | 0.06 | 0.01 | 73 | 1016.3 |
| 20260502023840 | 36 | 360 | 0.0 | 0.0 | 0.00 | 0.06 | 0.01 | 73 | 1016.3 |
| 20260502023328 | 36 | 360 | 0.0 | 0.0 | 0.00 | 0.06 | 0.01 | 74 | 1016.2 |
| 20260502022833 | 37 | 360 | 0.0 | 0.0 | 0.00 | 0.06 | 0.01 | 74 | 1016.2 |
| 20260502022321 | 37 | 360 | 0.0 | 0.0 | 0.00 | 0.06 | 0.01 | 74 | 1016.1 |
| 20260502021830 | 37 | 360 | 0.0 | 0.0 | 0.00 | 0.06 | 0.01 | 73 | 1016.0 |
| 20260502021405 | 37 | 360 | 0.0 | 0.0 | 0.00 | 0.06 | 0.01 | 73 | 1016.1 |
| 20260502020851 | 37 | 360 | 0.0 | 0.0 | 0.00 | 0.06 | 0.01 | 73 | 1016.1 |
| 20260502020339 | 37 | 360 | 0.0 | 0.0 | 0.00 | 0.06 | 0.01 | 73 | 1016.0 |
| 20260502015827 | 37 | 360 | 0.0 | 2.0 | 0.00 | 0.06 | 0.01 | 72 | 1016.0 |